Romeoville, IL

8:23 PM CDT on July 26, 2017 (GMT -0500)
Lewis University

Weather History for KLOT - April, 2014

Change the Weather History Date:

Wednesday, April 16, 2014

  Actual Average Record
Temperature  
Mean Temperature 41 °F 50 °F  
Max Temperature 52 °F 61 °F 88 °F (2002)
Min Temperature 29 °F 40 °F 29 °F (2001)
Degree Days  
Heating Degree Days 24 15  
Month to date heating degree days 297 280  
Since 1 July heating degree days 6951 5825  
Cooling Degree Days 0 0  
Month to date cooling degree days 0 0  
Year to date cooling degree days 0 0  
Moisture  
Dew Point 24 °F    
Average Humidity 56    
Maximum Humidity 80    
Minimum Humidity 33    
Precipitation  
Precipitation 0.00 in 0.14 in 2.23 in (2006)
Month to date precipitation 2.06 1.92  
Year to date precipitation 9.03 8.40  
Snow  
Snow 0.00 in 0.00 in - ()
Month to date snowfall 1.0 0.4  
Since 1 July snowfall 76.7 32.2  
Snow Depth 0.00 in    
Sea Level Pressure  
Sea Level Pressure 30.21 in    
Wind  
Wind Speed 13 mph (SSE)    
Max Wind Speed 28 mph    
Max Gust Speed 34 mph    
Visibility 10 miles    
Events      
T = Trace of Precipitation, MM = Missing Value Source: NWS Daily Summary

Daily Weather History Graph

Daily Weather History Graph

Search for Another Location

Airport or City:

Trip Planner

Search our weather history database for the weather conditions in past years. The results will help you decide how hot, cold, wet, or windy it might be!

Date:

Astronomy

Apr. 16, 2014 Rise Set
Actual Time 6:10 AM CDT 7:34 PM CDT
Civil Twilight 5:42 AM CDT 8:03 PM CDT
Nautical Twilight 5:07 AM CDT 8:37 PM CDT
Astronomical Twilight 4:30 AM CDT 9:14 PM CDT
Moon 9:18 PM CDT (4/16) 6:57 AM CDT (4/16)
Length of Visible Light 14h 21m
Length of Day
13h 23m
Full, 98% of the Moon is Illuminated
Apr 16
Full
Apr 22
Last Quarter
Apr 29
New
May 6
First Quarter
May 14
Full

Hourly Weather History & Observations

Time (CDT) Temp. Windchill Dew Point Humidity Pressure Visibility Wind Dir Wind Speed Gust Speed Precip Events Conditions
12:15 AM 29.3 °F 23.2 °F 21.4 °F 72% 30.22 in 10.0 mi South 5.8 mph - N/A   Clear
12:35 AM 29.7 °F 23.7 °F 21.7 °F 72% 30.22 in 10.0 mi South 5.8 mph - N/A   Clear
12:55 AM 28.6 °F 22.4 °F 21.7 °F 76% 30.22 in 10.0 mi SSE 5.8 mph - N/A   Clear
1:15 AM 28.4 °F 22.2 °F 21.9 °F 77% 30.22 in 10.0 mi SSE 5.8 mph - N/A   Clear
1:35 AM 28.0 °F 20.8 °F 21.7 °F 77% 30.23 in 10.0 mi SSE 6.9 mph - N/A   Clear
1:55 AM 28.2 °F 21.0 °F 21.7 °F 77% 30.23 in 10.0 mi South 6.9 mph - N/A   Clear
2:15 AM 27.9 °F 20.6 °F 21.7 °F 78% 30.23 in 10.0 mi SSE 6.9 mph - N/A   Clear
2:35 AM 28.0 °F 20.8 °F 21.9 °F 78% 30.24 in 10.0 mi SSE 6.9 mph - N/A   Clear
2:55 AM 28.2 °F 20.2 °F 22.1 °F 78% 30.24 in 10.0 mi SSE 8.1 mph - N/A   Clear
3:15 AM 27.5 °F 20.2 °F 21.9 °F 80% 30.25 in 10.0 mi SSE 6.9 mph - N/A   Clear
3:35 AM 28.0 °F 20.0 °F 22.1 °F 78% 30.24 in 10.0 mi SSE 8.1 mph - N/A   Clear
3:55 AM 28.4 °F 19.7 °F 22.1 °F 77% 30.24 in 10.0 mi SSE 9.2 mph - N/A   Clear
4:15 AM 28.4 °F 19.7 °F 22.1 °F 77% 30.24 in 10.0 mi SSE 9.2 mph - N/A   Clear
4:35 AM 28.4 °F 19.7 °F 22.1 °F 77% 30.24 in 10.0 mi SSE 9.2 mph - N/A   Clear
4:55 AM 28.9 °F 20.4 °F 22.1 °F 76% 30.25 in 10.0 mi SSE 9.2 mph - N/A   Clear
5:15 AM 28.8 °F 19.5 °F 22.5 °F 77% 30.25 in 10.0 mi SSE 10.4 mph - N/A   Clear
5:35 AM 28.9 °F 19.8 °F 22.5 °F 77% 30.26 in 10.0 mi South 10.4 mph - N/A   Clear
5:55 AM 28.9 °F 19.8 °F 22.5 °F 77% 30.26 in 10.0 mi South 10.4 mph - N/A   Clear
6:15 AM 29.1 °F 19.4 °F 22.1 °F 75% 30.27 in 10.0 mi South 11.5 mph - N/A   Clear
6:35 AM 29.3 °F 20.2 °F 22.5 °F 76% 30.28 in 10.0 mi South 10.4 mph - N/A   Clear
6:55 AM 30.2 °F 21.9 °F 22.6 °F 73% 30.28 in 10.0 mi South 9.2 mph - N/A   Clear
7:15 AM 31.1 °F 22.4 °F 23.0 °F 72% 30.28 in 10.0 mi SSE 10.4 mph - N/A   Clear
7:35 AM 32.0 °F 22.5 °F 23.7 °F 71% 30.29 in 10.0 mi South 12.7 mph - N/A   Clear
7:55 AM 32.7 °F 22.5 °F 23.7 °F 69% 30.29 in 10.0 mi South 15.0 mph - N/A   Clear
8:15 AM 34.0 °F 25.5 °F 24.4 °F 68% 30.30 in 10.0 mi South 11.5 mph 17.3 mph N/A   Clear
8:35 AM 35.4 °F 25.6 °F 24.6 °F 65% 30.30 in 10.0 mi South 16.1 mph 20.7 mph N/A   Clear
8:55 AM 36.7 °F 27.6 °F 25.3 °F 64% 30.30 in 10.0 mi South 15.0 mph - N/A   Clear
9:15 AM 38.5 °F 29.2 °F 25.5 °F 60% 30.30 in 10.0 mi South 17.3 mph 24.2 mph N/A   Clear
9:35 AM 38.8 °F 29.7 °F 24.8 °F 57% 30.29 in 10.0 mi South 17.3 mph 24.2 mph N/A   Clear
9:55 AM 40.5 °F 31.2 °F 25.5 °F 55% 30.29 in 10.0 mi South 19.6 mph - N/A   Clear
10:15 AM 42.1 °F 33.6 °F 27.5 °F 56% 30.30 in 10.0 mi South 18.4 mph 25.3 mph N/A   Clear
10:35 AM 42.3 °F 33.6 °F 26.4 °F 54% 30.29 in 10.0 mi South 19.6 mph 27.6 mph N/A   Clear
10:55 AM 42.8 °F 34.0 °F 26.2 °F 52% 30.29 in 10.0 mi SSE 20.7 mph 27.6 mph N/A   Clear
11:15 AM 43.5 °F 34.7 °F 27.0 °F 52% 30.28 in 10.0 mi SSE 21.9 mph 27.6 mph N/A   Clear
11:35 AM 44.2 °F 35.4 °F 26.2 °F 49% 30.27 in 10.0 mi South 23.0 mph 31.1 mph N/A   Clear
11:55 AM 44.8 °F 35.9 °F 25.9 °F 48% 30.26 in 10.0 mi SSE 24.2 mph 29.9 mph N/A   Clear
12:15 PM 45.7 °F 37.4 °F 26.8 °F 48% 30.25 in 10.0 mi South 23.0 mph 27.6 mph N/A   Clear
12:35 PM 46.4 °F 38.7 °F 26.6 °F 46% 30.24 in 10.0 mi South 20.7 mph 29.9 mph N/A   Clear
12:55 PM 47.5 °F - 28.0 °F 47% 30.23 in 10.0 mi South 24.2 mph 32.2 mph N/A   Clear
1:15 PM 46.6 °F - 26.6 °F 46% 30.23 in 10.0 mi South 19.6 mph 27.6 mph N/A   Clear
1:35 PM 48.0 °F - 28.0 °F 46% 30.22 in 10.0 mi SSE 23.0 mph 27.6 mph N/A   Clear
1:55 PM 48.7 °F - 26.6 °F 42% 30.21 in 10.0 mi South 24.2 mph 33.4 mph N/A   Clear
2:15 PM 49.8 °F - 26.2 °F 40% 30.20 in 10.0 mi SSE 27.6 mph 34.5 mph N/A   Clear
2:35 PM 50.2 °F - 25.9 °F 39% 30.19 in 10.0 mi SSE 25.3 mph 28.8 mph N/A   Clear
2:55 PM 50.0 °F - 24.8 °F 37% 30.18 in 10.0 mi South 21.9 mph 29.9 mph N/A   Clear
3:15 PM 50.9 °F - 25.5 °F 37% 30.17 in 10.0 mi SSE 25.3 mph 33.4 mph N/A   Clear
3:35 PM 51.6 °F - 25.9 °F 37% 30.16 in 10.0 mi South 19.6 mph 27.6 mph N/A   Clear
3:55 PM 51.4 °F - 24.8 °F 35% 30.15 in 10.0 mi South 24.2 mph 28.8 mph N/A   Clear
4:15 PM 50.9 °F - 24.1 °F 35% 30.15 in 10.0 mi SSE 20.7 mph 28.8 mph N/A   Clear
4:35 PM 51.8 °F - 24.3 °F 34% 30.14 in 10.0 mi SSE 20.7 mph 29.9 mph N/A   Clear
4:55 PM 52.2 °F - 23.7 °F 33% 30.13 in 10.0 mi SSE 20.7 mph 27.6 mph N/A   Clear
5:15 PM 52.0 °F - 23.2 °F 33% 30.13 in 10.0 mi South 23.0 mph 27.6 mph N/A   Clear
5:35 PM 51.4 °F - 23.7 °F 34% 30.12 in 10.0 mi SSE 20.7 mph 26.5 mph N/A   Clear
5:55 PM 50.9 °F - 23.4 °F 34% 30.12 in 10.0 mi SSE 19.6 mph 32.2 mph N/A   Clear
6:15 PM 50.0 °F - 23.5 °F 36% 30.12 in 10.0 mi SSE 23.0 mph 27.6 mph N/A   Clear
6:35 PM 50.2 °F - 24.6 °F 37% 30.12 in 10.0 mi SSE 19.6 mph 24.2 mph N/A   Clear
6:55 PM 48.6 °F - 24.3 °F 39% 30.12 in 10.0 mi SSE 21.9 mph 27.6 mph N/A   Clear
7:15 PM 47.7 °F - 25.0 °F 41% 30.12 in 10.0 mi SSE 17.3 mph 20.7 mph N/A   Clear
7:35 PM 46.4 °F 39.8 °F 24.8 °F 43% 30.12 in 10.0 mi SSE 16.1 mph 23.0 mph N/A   Clear
7:55 PM 46.6 °F - 24.4 °F 42% 30.13 in 10.0 mi SSE 16.1 mph - N/A   Clear
8:15 PM 45.7 °F 38.8 °F 24.8 °F 44% 30.14 in 10.0 mi SSE 16.1 mph 19.6 mph N/A   Clear
8:35 PM 45.1 °F 37.3 °F 24.8 °F 45% 30.13 in 10.0 mi SE 19.6 mph - N/A   Clear
8:55 PM 45.3 °F 37.8 °F 24.4 °F 44% 30.12 in 10.0 mi SSE 18.4 mph - N/A   Clear
9:15 PM 45.3 °F 38.1 °F 24.1 °F 43% 30.13 in 10.0 mi SE 17.3 mph 25.3 mph N/A   Clear
9:35 PM 44.6 °F 37.2 °F 24.8 °F 46% 30.13 in 10.0 mi SSE 17.3 mph - N/A   Clear
9:55 PM 43.3 °F 36.5 °F 25.5 °F 49% 30.15 in 10.0 mi SSE 13.8 mph 18.4 mph N/A   Clear
10:15 PM 42.6 °F 35.6 °F 25.7 °F 51% 30.16 in 10.0 mi South 13.8 mph - N/A   Clear
10:35 PM 41.0 °F 34.3 °F 26.6 °F 57% 30.17 in 10.0 mi South 11.5 mph - N/A   Clear
10:55 PM 40.3 °F 33.4 °F 27.0 °F 59% 30.16 in 10.0 mi SSE 11.5 mph - N/A   Clear
11:15 PM 39.9 °F 33.4 °F 26.8 °F 59% 30.16 in 10.0 mi SSE 10.4 mph - N/A   Clear
11:35 PM 40.5 °F 33.6 °F 26.6 °F 58% 30.17 in 10.0 mi SSE 11.5 mph 17.3 mph N/A   Clear
11:55 PM 40.8 °F 32.6 °F 26.4 °F 57% 30.16 in 10.0 mi SSE 16.1 mph - N/A   Clear